[[{"header":{"parameterUnit":"m.s-1","parameterCategory":1,"la1":30.2991,"la2":30.254,"lo1":-89.0895,"lo2":-89.0444,"dy":0.0017,"dx":0.0017,"nx":28,"ny":28,"refTime":"2025-11-08T09:00:00:Z","depth":0,"parameterNumber":2,"parameterNumberName":"U-component_of_WINDS"},"data":[0,0,0,0,0,0,0,0,0,0,0,0,0,0,0,0,0,0,0,0,0,0,0,0,0,0,0,0,0,0,0,0,0,0,0,0,0,0,0,0,0,0,0,0,0,0,0,0,0,0,0,0,0,0,0,0,0,0,-0.2279,-0.2278,0,-0.2165,-0.2164,-0.2162,-0.2117,-0.2117,-0.2118,-0.2118,-0.1996,-0.1993,-0.1989,0,0,0,0,0,0,0,0,0,0,0,0,0,-0.2453,-0.245,-0.2279,-0.2278,-0.2276,-0.2165,-0.2164,-0.2162,-0.2117,-0.2117,-0.2118,-0.2118,-0.1997,-0.1993,-0.1989,0,0,0,0,0,0,0,0,0,0,0,0,0,-0.2362,-0.2449,-0.2279,-0.2241,-0.2236,-0.2166,-0.2164,-0.2162,-0.2117,-0.2117,-0.2118,-0.2118,-0.1999,-0.1993,-0.1988,-0.1947,0,0,-0.1972,-0.197,0,0,0,0,0,0,0,0,-0.2367,-0.2356,-0.2248,-0.2243,-0.2238,-0.2156,-0.218,-0.2089,-0.2117,-0.2162,-0.2118,-0.2118,-0.2049,-0.2039,-0.2017,-0.1941,-0.1936,-0.1972,-0.1968,-0.1966,-0.1965,0,0,0,0,0,0,0,-0.2374,-0.236,-0.2234,-0.2246,-0.224,-0.2227,-0.2215,-0.2163,-0.2104,-0.2158,-0.2154,-0.2142,-0.2046,-0.2022,-0.2013,-0.1934,-0.1972,-0.1967,-0.1964,-0.1962,-0.1817,-0.1816,0,0,0,0,0,0,-0.2387,-0.2366,-0.2237,-0.223,-0.2305,-0.2224,-0.221,-0.2182,-0.2104,-0.2093,-0.2142,-0.214,-0.2031,-0.202,-0.2009,-0.1954,-0.1966,-0.1961,-0.1958,-0.1817,-0.1817,-0.1816,0,0,0,0,0,0,-0.2391,-0.2376,-0.2242,-0.2297,-0.2279,-0.222,-0.2189,-0.2179,-0.2155,-0.2092,-0.2081,-0.2128,-0.2031,-0.2016,-0.1963,-0.195,-0.1959,-0.1954,-0.1818,-0.1817,-0.1816,-0.1846,0,0,0,0,0,0,-0.2396,-0.2378,-0.2363,-0.2297,-0.2276,-0.2199,-0.2188,-0.2177,-0.2147,-0.2144,-0.2076,-0.2066,-0.203,-0.1971,-0.1957,-0.1942,-0.195,-0.1819,-0.1818,-0.1817,-0.1846,-0.1846,-0.1846,0,0,0,0,0,-0.2403,-0.2375,-0.2362,-0.2347,-0.2257,-0.2199,-0.2187,-0.2147,-0.2146,-0.2129,-0.2089,-0.2068,-0.1953,-0.1966,-0.195,-0.1934,-0.182,-0.1818,-0.1817,-0.1846,-0.1846,-0.1846,0,0,0,0,0,0,-0.2439,-0.2366,-0.2351,-0.2301,-0.2257,-0.2191,-0.2169,-0.2149,-0.2103,-0.2102,-0.2053,-0.2038,-0.1988,-0.1955,-0.197,-0.1888,-0.1885,-0.188,-0.1912,-0.1912,-0.1912,-0.1921,-0.1946,0,0,0,0,0,-0.2441,-0.2402,-0.2339,-0.2302,-0.228,-0.2229,-0.2202,-0.2176,-0.2127,-0.2107,-0.2063,-0.2015,-0.1968,-0.1938,-0.1891,-0.1841,-0.1824,-0.1821,-0.1822,-0.1822,-0.1818,-0.1788,-0.1785,-0.1811,-0.1811,-0.1811,0,0,-0.2446,-0.2401,-0.2379,-0.2308,-0.227,-0.2229,-0.2213,-0.217,-0.2139,-0.21,-0.2047,-0.2013,-0.1956,-0.1903,-0.1878,-0.1874,-0.1808,-0.182,-0.1821,-0.1817,-0.1786,-0.1784,-0.1782,-0.181,-0.181,-0.181,0,0,-0.2432,-0.2395,-0.2359,-0.2322,-0.2266,-0.2231,-0.2223,-0.216,-0.2136,-0.2082,-0.2052,-0.2013,-0.1934,-0.1894,-0.1864,-0.1835,-0.1813,-0.182,-0.1821,-0.1792,-0.179,-0.1788,-0.1777,-0.1774,-0.1817,-0.1817,-0.1817,0,-0.2445,-0.2383,-0.2343,-0.2302,-0.2271,-0.2235,-0.2198,-0.2163,-0.2094,-0.2072,-0.207,-0.1969,-0.1928,-0.1865,-0.1858,-0.1835,-0.1822,-0.1828,-0.1794,-0.1792,-0.1789,-0.1778,-0.1774,-0.1818,-0.1818,-0.1818,-0.1818,0,-0.24,-0.2358,-0.2335,-0.2271,-0.2237,-0.2198,-0.215,-0.2121,-0.2097,-0.2062,-0.2007,-0.1957,-0.1899,-0.1882,-0.1858,-0.1815,-0.1815,-0.1804,-0.1799,-0.1789,-0.1777,-0.1772,-0.182,-0.182,-0.1819,-0.1819,0,0,-0.2407,-0.2321,-0.2313,-0.2283,-0.2218,-0.2183,-0.2141,-0.2086,-0.2061,-0.2014,-0.1977,-0.1911,-0.19,-0.1865,-0.1836,-0.1811,-0.179,-0.1802,-0.18,-0.1801,-0.1738,-0.1747,-0.1743,-0.1775,-0.1774,-0.1774,-0.1743,0,-0.2385,-0.231,-0.2273,-0.2214,-0.2173,-0.2138,-0.2102,-0.2057,-0.2023,-0.1983,-0.1945,-0.1898,-0.1888,-0.1867,-0.184,-0.1798,-0.1776,-0.18,-0.1739,-0.1737,-0.1754,-0.1737,-0.1746,-0.172,-0.1738,-0.1737,-0.1737,0,-0.2349,-0.2304,-0.2241,-0.218,-0.2161,-0.213,-0.2076,-0.2038,-0.1985,-0.1962,-0.1924,-0.1895,-0.1848,-0.1847,-0.1781,-0.1798,-0.177,-0.1746,-0.1744,-0.1736,-0.1736,-0.1728,-0.171,-0.1706,-0.173,-0.173,-0.1731,0,-0.236,-0.2283,-0.2235,-0.221,-0.2138,-0.2116,-0.2085,-0.2033,-0.2002,-0.1954,-0.1933,-0.188,-0.185,-0.1809,-0.1766,-0.177,-0.1703,-0.1699,-0.1682,-0.1683,-0.1669,-0.1671,-0.1646,-0.1653,-0.1653,-0.1653,-0.1653,0,-0.2338,-0.2301,-0.2239,-0.221,-0.2167,-0.2123,-0.2081,-0.2046,-0.2,-0.1962,-0.1928,-0.1893,-0.1839,-0.1797,-0.1763,-0.1712,-0.1699,-0.1678,-0.167,-0.1681,-0.1684,-0.1662,-0.1663,-0.1652,-0.1652,-0.1652,-0.1652,0,-0.2343,-0.23,-0.2246,-0.2182,-0.2165,-0.2136,-0.208,-0.2049,-0.2014,-0.1966,-0.1952,-0.1896,-0.1844,-0.1798,-0.1729,-0.1706,-0.1654,-0.1643,-0.1672,-0.1667,-0.1653,-0.1655,-0.1613,-0.1605,-0.1618,-0.1618,-0.1618,0,-0.2332,-0.2303,-0.2236,-0.2209,-0.2179,-0.2135,-0.2104,-0.2059,-0.2027,-0.1964,-0.1941,-0.1887,-0.1841,-0.176,-0.1712,-0.1658,-0.1646,-0.1635,-0.1637,-0.165,-0.1645,-0.1647,-0.1643,-0.1635,-0.1635,-0.1635,-0.1635,0,-0.2318,-0.2298,-0.2254,-0.2203,-0.2166,-0.2123,-0.2079,-0.2059,-0.2005,-0.197,-0.1918,-0.1883,-0.1812,-0.1759,-0.17,-0.1665,-0.1641,-0.1635,-0.1628,-0.164,-0.1657,-0.1647,-0.1673,-0.1636,-0.1636,-0.1636,-0.1636,-0.1636,-0.2314,-0.2286,-0.2234,-0.2187,-0.2149,-0.2108,-0.2076,-0.2037,-0.1993,-0.1933,-0.1909,-0.1855,-0.1802,-0.172,-0.1686,-0.1642,-0.1637,-0.1627,-0.1625,-0.1623,-0.1625,-0.1665,-0.1631,-0.1631,-0.1631,-0.1631,-0.1631,0,-0.2297,-0.2262,-0.2219,-0.2158,-0.212,-0.2102,-0.2052,-0.2021,-0.1975,-0.1928,-0.1884,-0.1823,-0.177,-0.1718,-0.1662,-0.1637,-0.1624,-0.1624,-0.1625,-0.1617,-0.1632,-0.1644,-0.1635,-0.1635,-0.1635,-0.1635,-0.1635,-0.1635,-0.2284,-0.2235,-0.2209,-0.2141,-0.2106,-0.2054,-0.2027,-0.1988,-0.1951,-0.1885,-0.1841,-0.1808,-0.1758,-0.1699,-0.1649,-0.1635,-0.1616,-0.1618,-0.1601,-0.1616,-0.1616,-0.1616,-0.1627,-0.1615,-0.1615,-0.1589,-0.1589,-0.1589]},{"header":{"parameterUnit":"m.s-1","parameterCategory":1,"la1":30.2991,"la2":30.254,"lo1":-89.0895,"lo2":-89.0444,"dy":0.0017,"dx":0.0017,"nx":28,"ny":28,"refTime":"2025-11-08T09:00:00:Z","depth":0,"parameterNumber":3,"parameterNumberName":"V-component_of_WINDS"},"data":[0,0,0,0,0,0,0,0,0,0,0,0,0,0,0,0,0,0,0,0,0,0,0,0,0,0,0,0,0,0,0,0,0,0,0,0,0,0,0,0,0,0,0,0,0,0,0,0,0,0,0,0,0,0,0,0,0,0,2.7742,2.7742,0,2.7801,2.7802,2.7802,2.7801,2.78,2.7799,2.7799,2.7857,2.7859,2.7861,0,0,0,0,0,0,0,0,0,0,0,0,0,2.7623,2.7625,2.7742,2.7742,2.7743,2.7801,2.7802,2.7803,2.7801,2.78,2.7799,2.7798,2.7856,2.7859,2.7861,0,0,0,0,0,0,0,0,0,0,0,0,0,2.7678,2.7626,2.7741,2.7749,2.7751,2.7801,2.7802,2.7803,2.7801,2.78,2.7799,2.7798,2.7855,2.7858,2.7862,2.7907,0,0,2.7872,2.7874,0,0,0,0,0,0,0,0,2.7674,2.7682,2.7747,2.7749,2.775,2.7792,2.7781,2.7838,2.7802,2.7782,2.7799,2.7797,2.7836,2.7841,2.7855,2.791,2.7912,2.7873,2.7875,2.7876,2.7877,0,0,0,0,0,0,0,2.7671,2.7679,2.7765,2.7748,2.775,2.7749,2.7755,2.7792,2.7815,2.7784,2.7784,2.7791,2.7837,2.7851,2.7856,2.7913,2.7873,2.7876,2.7878,2.7879,2.8009,2.801,0,0,0,0,0,0,2.7666,2.7676,2.7763,2.7767,2.7709,2.7752,2.7759,2.778,2.7815,2.7819,2.7792,2.7791,2.7846,2.7852,2.7858,2.7914,2.7876,2.7879,2.7881,2.8007,2.8009,2.8011,0,0,0,0,0,0,2.7663,2.7673,2.7761,2.7722,2.7733,2.7755,2.7779,2.7782,2.7797,2.7821,2.7825,2.7803,2.7845,2.7853,2.7895,2.7916,2.7881,2.7884,2.8006,2.8008,2.801,2.8026,0,0,0,0,0,0,2.766,2.7673,2.7691,2.7722,2.7735,2.7798,2.778,2.7784,2.7803,2.7802,2.7832,2.7836,2.7845,2.789,2.7899,2.792,2.7887,2.8004,2.8007,2.8009,2.8024,2.8029,2.8033,0,0,0,0,0,2.7656,2.7693,2.7692,2.7702,2.7758,2.7799,2.7806,2.7817,2.7805,2.7823,2.7838,2.7835,2.7912,2.7894,2.7904,2.7927,2.8003,2.8006,2.8009,2.8022,2.8028,2.8033,0,0,0,0,0,0,2.7662,2.7697,2.7697,2.7745,2.7769,2.7799,2.7822,2.7822,2.785,2.7848,2.7858,2.7865,2.7907,2.7921,2.7901,2.7973,2.7956,2.7961,2.7963,2.7968,2.7972,2.7969,2.789,0,0,0,0,0,2.767,2.7701,2.7729,2.7769,2.7781,2.7799,2.7818,2.7824,2.7849,2.7859,2.7877,2.7901,2.7931,2.795,2.7978,2.8025,2.8032,2.8046,2.805,2.8054,2.8058,2.8084,2.8091,2.8021,2.8021,2.8021,0,0,2.7685,2.7707,2.7726,2.7771,2.779,2.7822,2.7808,2.7842,2.7865,2.7864,2.7905,2.7919,2.7946,2.7991,2.8012,2.8004,2.8079,2.8057,2.806,2.8063,2.8088,2.8095,2.8101,2.8023,2.8022,2.8022,0,0,2.7729,2.7749,2.7785,2.7805,2.7835,2.7847,2.7855,2.7885,2.7895,2.7936,2.7936,2.7963,2.8013,2.8033,2.805,2.81,2.8099,2.8109,2.8132,2.8157,2.8163,2.8168,2.8187,2.8193,2.8113,2.8113,2.8113,0,2.7744,2.7792,2.7803,2.7837,2.7856,2.7857,2.7893,2.7911,2.7949,2.7962,2.7952,2.8016,2.8034,2.8084,2.8096,2.8109,2.8119,2.8106,2.8161,2.8167,2.8171,2.8189,2.8196,2.8114,2.8114,2.8114,2.8114,0,2.7809,2.7842,2.7867,2.7905,2.7927,2.7962,2.7977,2.7997,2.8001,2.8013,2.8055,2.8077,2.811,2.8122,2.8126,2.8172,2.8167,2.8159,2.8143,2.8179,2.8196,2.8203,2.8116,2.8116,2.8115,2.8115,0,0,2.786,2.7903,2.7912,2.7929,2.7962,2.7988,2.8022,2.8055,2.8073,2.8098,2.8127,2.8169,2.8163,2.8182,2.8187,2.8209,2.8249,2.8199,2.82,2.8208,2.8302,2.8308,2.8316,2.8247,2.8248,2.8249,2.83,0,2.7908,2.7971,2.7981,2.8036,2.8067,2.8067,2.8097,2.812,2.8132,2.8159,2.8172,2.8203,2.8191,2.8203,2.8224,2.8239,2.8268,2.8235,2.8274,2.8275,2.8269,2.8325,2.8332,2.8379,2.8307,2.8308,2.8308,0,2.7973,2.8002,2.806,2.8088,2.8102,2.8129,2.816,2.8186,2.8211,2.8219,2.8239,2.8242,2.8277,2.8258,2.8306,2.8284,2.83,2.8309,2.8311,2.8316,2.8295,2.8332,2.8394,2.8401,2.8319,2.8318,2.8317,0,2.8006,2.8058,2.81,2.8114,2.8148,2.8167,2.8182,2.8207,2.8226,2.8253,2.8265,2.8295,2.8312,2.8335,2.8345,2.833,2.8392,2.8374,2.8399,2.8399,2.8414,2.8413,2.848,2.8422,2.8422,2.8422,2.8422,0,2.8059,2.8095,2.8115,2.8141,2.818,2.8191,2.8229,2.8243,2.8265,2.8293,2.8294,2.832,2.8332,2.8359,2.8367,2.8406,2.8413,2.842,2.8422,2.842,2.842,2.8432,2.8429,2.8424,2.8423,2.8423,2.8422,0,2.8103,2.8118,2.8164,2.8192,2.82,2.8228,2.8253,2.8277,2.8289,2.8324,2.8333,2.8351,2.8383,2.8396,2.8434,2.844,2.8485,2.8484,2.8477,2.8478,2.8503,2.8501,2.8581,2.8592,2.8526,2.8526,2.8527,0,2.8137,2.8165,2.8197,2.8216,2.8232,2.8263,2.8283,2.8293,2.8314,2.8345,2.8366,2.8398,2.8425,2.8476,2.8492,2.8522,2.8522,2.8548,2.8527,2.8525,2.8524,2.8523,2.8526,2.8552,2.8553,2.8553,2.8554,0,2.8196,2.8202,2.8231,2.8263,2.8287,2.8313,2.8337,2.8352,2.8367,2.8389,2.8423,2.8444,2.8484,2.8516,2.8547,2.8561,2.856,2.856,2.8568,2.8568,2.8563,2.8567,2.8489,2.8559,2.8558,2.8558,2.8558,2.8557,2.8237,2.8261,2.8288,2.832,2.834,2.8363,2.8388,2.8403,2.8431,2.8466,2.847,2.8506,2.853,2.8571,2.8587,2.8614,2.8607,2.8618,2.8621,2.8624,2.8627,2.8558,2.862,2.862,2.8619,2.8619,2.8619,0,2.8296,2.8313,2.8343,2.8378,2.8404,2.8401,2.8427,2.8449,2.8481,2.8504,2.853,2.8569,2.86,2.8618,2.8649,2.8668,2.8668,2.8676,2.8675,2.8679,2.863,2.8621,2.8675,2.8675,2.8675,2.8675,2.8675,2.8675,2.8331,2.8373,2.8382,2.8433,2.8449,2.8486,2.8501,2.8522,2.8541,2.8584,2.861,2.8622,2.8643,2.8676,2.8704,2.8708,2.872,2.8728,2.8733,2.8687,2.8682,2.8676,2.8668,2.8731,2.8731,2.8779,2.8779,2.8779]}]]